Regional Weather Roundup
Issued by NWS Albany, NY

Home | Current Version | Previous Version | Text Only | Print | Product List | Glossary On
Versions: 1 2 3 4 5 6 7 8 9 10 11 12 13 14 15 16 17 18 19 20 21 22 23 24 25 26 27 28 29 30 31 32 33 34 35 36 37 38 39 40 41 42 43 44 45 46 47 48 49 50
000
ASUS41 KALY 270510
RWRALY

NEW YORK STATE HOURLY WEATHER ROUNDUP
NATIONAL WEATHER SERVICE ALBANY NY
100 AM EDT MON JUL 27 2015

NOTE: "FAIR" INDICATES FEW OR NO CLOUDS BELOW 12,000 FEET WITH NO
SIGNIFICANT WEATHER AND/OR NO OBSTRUCTIONS TO VISIBILITY.

NYZ032-033-038>043-046>054-057>066-NYZ062>081-270600-
EAST


CITY           SKY/WX    TMP DP  RH WIND       PRES   REMARKS
ALBANY         MOCLDY    71  67  87 CALM      29.96S
GLENS FALLS    CLEAR     68  65  90 CALM      29.95F
POUGHKEEPSIE   CLOUDY    70  68  93 CALM      29.97F
MONTGOMERY     CLOUDY    67  65  93 CALM      29.99S
WHITE PLAINS   CLOUDY    72  64  76 S3        29.99F
ISLIP          CLOUDY    76  68  76 SW9       29.99S
NEW YORK CITY  CLOUDY    79  59  50 SW6       29.99R
CENTRAL PARK   CLOUDY    78  60  53 CALM      30.02R
$$

NYZ005>009-017-018-044>046-055-056-270600-
CENTRAL


CITY           SKY/WX    TMP DP  RH WIND       PRES   REMARKS
FULTON         FOG       60  58  92 CALM      29.98S VSB 1
SYRACUSE       PTCLDY    66  65  96 CALM      29.97S
ROME           CLEAR     63  62  97 CALM      29.99R
ELMIRA         FOG       67  67 100 CALM      29.99F VSB 1/4
BINGHAMTON     CLEAR     66  60  81 S5        30.02S
MONTICELLO     CLOUDY    64  64 100 CALM      30.03S
$$

NYZ026>034-041>043-270600-
NORTH


CITY           SKY/WX    TMP DP  RH WIND       PRES   REMARKS
WATERTOWN      FOG       60  59  96 CALM      29.96S VSB<1/4
FORT DRUM      NOT AVBL
MASSENA        CLEAR     62  61  96 CALM      29.96R FOG
SARANAC LAKE   CLOUDY    56  55  97 CALM      30.00F FOG
PLATTSBURGH    CLEAR     66  65  96 CALM      29.94F
$$

NYZ001>004-010>016-019>021-270600-
WEST


CITY           SKY/WX    TMP DP  RH WIND       PRES   REMARKS
NIAGARA FALLS  PTCLDY    68  63  84 CALM      29.97S
BUFFALO        MOCLDY    70  64  81 S3        29.98S
DUNKIRK        PTCLDY    64  62  93 S3        29.99R
JAMESTOWN      PTCLDY    64  59  82 N3        30.03S
WELLSVILLE     FOG       66  62  87 CALM      30.05S VSB 1/4
ROCHESTER      MOCLDY    66  63  90 CALM      29.97F
PENN YAN       PTCLDY    67  66  97 CALM      29.99S FOG
$$

             KEY
       WCI = WIND CHILL INDEX
       VSB = VISIBILITY
       HX  = HEAT INDEX
$$


USA.gov is the U.S. government's official web portal to all federal, state and local government web resources and services.